ONEWEB-0201, 48241

Orbit data source: Space-Track

ONEWEB-0201, 48241 is a payload satellite owned by One Web (NAA) (UK) in LEO that was launched on Sun, 25 Apr 2021 UTC via a SOYUZ-2-1B launch vehicle from the Vostochny Cosmodrome (VOSTO). Payload-class satellites include a variety of spacecraft equipped with specific instruments for various scientific and technological missions. These include communications satellites like Starlink; space stations such as the ISS; scientific satellites like the Hubble; Earth observation satellites from companies like Planet Labs, Umbra, and HawkEye 360; GPS; miniature CubeSats for education and research; and military/defense satellites.

Loading next visibility...
Identifier
48241, 2021-031AH
Orbit
LEO
Country
Flag of UKUK
Related business
Manufacturer
One Web
Mission
Operational Commercial Communications
Bus & Motor
ARROW, Unknown motor
Mass
148 kg wet, ~140 kg dry
Launch date (UTC)
2021-04-25 (5 years ago)
Launch vehicle
SOYUZ-2-1B
Launch site
Vostochny Cosmodrome (VOSTO)
Object type
Payload
Rocket body
Debris
Shape & HBR
Trap Box + 2 Pan, 6.7 m
Radar Cross Section
3.464 m², Large (>1 m²)

Expand to show TLE details & history
Last TLE update: 12 hours ago

TLE from 12 hours ago
0 ONEWEB-0201
1 48241U 21031AH  25306.36715534  .00000091  00000-0  21176-3 0  9996
2 48241  87.8999 334.9176 0001829  84.5695 275.5644 13.14505197218584
Epoch: 2025-11-02T08:48Z
TLE epoch observation values (Epoch: 2025-11-02T08:48:42.221Z)
Latitude
0.00005°
Longitude
160.85778°
Altitude
1,208.541 km
Speed
7.25 km/s
True Right ascension
22h 19m 40s
True Declination
0° 00' 00"
Sunlit
Object was in daylight at epoch
Visualization orbit readout
Latitude
Unknown
Longitude
Unknown
Altitude
Unknown
Speed
Unknown
Apparent Right ascension
Unknown
Apparent Declination
Unknown
Sunlit
N/A
Visualization observer readout
Local Sidereal Time
16:56:05
Azimuth
Unknown
Elevation
Unknown
Doppler factor
Unknown
Orbital elements
Apogee altitude
1,204.281 km
Perigee altitude
1,201.508 km
Semi-major axis
7,581.032 km
Eccentricity
0.00018
Inclination
87.8999°
RAAN
334.9176°
Arg. of periapsis
84.5695°
True anomaly
275.54354°
Mean anomaly
275.5644°
Eccentric anomaly
275.55397°
Mean motion
3.28814 °/min
Orbital period
109.48 mins
BSTAR
0.00021176
Loading maneuver chart data...
Computing Atmospheric mass density...
Loading historical data...
Loading historical data...
Loading historical data...
Loading historical data...
Loading historical data...
Loading historical data...
Loading historical data...

Documentation

Showing up to 5 results
|